STARLINK-1093 (44970 NORAD) Tracking and Keplerian Element Data

This shows tracking and keplerian element data for the satellite.

Feedback or suggestion? Click here.




ElementValue
Catalog44970
NameSTARLINK-1093
Epoch Orbit1366
Epoch Day93.91667824
Epoch Year2020
RAAN326.4309
Inclination53.0029
Eccentricity0.0008212
Argument of Perigee328.2994
Mean Anonmoly197.6553
Mean Motion15.62764337
Decay Rate-0.00017685
L11 44970U 20001BJ 20093.91667824 -.00017685 00000-0 -18720-3 0 9994
L22 44970 53.0029 326.4309 0008212 328.2994 197.6553 15.62764337 13668

Live tracking and technical data element details for STARLINK-1093 (NORAD 44970). STARLINK-1093 can be tracked NOW for your location showing map with azimuth and elevation plus other details from your city location.

Track the satellite on the map from your city or location and see movement details for azimuth, elevation, latitude, longitude, range, height, and movement on the map or in text.







IsCatalogInMostPopularTable: catalog: 44970, numindb: 19
Update: records affected: 1



GetName: 44970 STARLINK-1093

Hit Count: updated at: Sat, 04 Apr 2020 00:01:51 GMT